AEHF-2 (USA 235)

Last updated on Sun Nov 02 2025 00:02:48 GMT+0000 (Coordinated Universal Time)

1 38254U 12019A 25305.60722397 -.00000120 00000+0 00000+0 0 9998 2 38254 6.1227 59.0763 0003465 168.4571 15.7082 1.00270182 4707
UTC large
Height (km)
Speed (km/s)
/
Latitude / Longitude
Inclination (degrees)
Orbital Period (minutes)
Azimuth
Elevation
Range (km)
Doppler Factor

Next 0 passes for location: London (51.5072 / 0.1276)

Sorry there are no passes over London.